Regional Weather Roundup
Issued by NWS

Home | Current Version | Previous Version | Graphics & Text | Print | Product List | Glossary On
Versions: 1 2 3 4 5 6 7 8 9 10 11 12 13 14 15 16 17 18 19 20 21 22 23 24 25 26 27 28 29 30 31 32 33 34 35 36 37 38 39 40 41 42 43 44 45 46 47 48 49 50
000
ASUS43 KBIS 251910
RWRND

NORTH DAKOTA REGIONAL WEATHER ROUNDUP
NATIONAL WEATHER SERVICE BISMARCK ND
100 PM CST THU DEC 25 2014

NOTE: "FAIR" INDICATES FEW OR NO CLOUDS BELOW 12,000 FEET WITH NO
SIGNIFICANT WEATHER AND/OR OBSTRUCTIONS TO VISIBILITY.


NDZ001>003-009>011-017-252000-
NORTHWEST NORTH DAKOTA

CITY           SKY/WX    TMP DP  RH WIND       PRES   REMARKS
WILLISTON      CLOUDY    26  19  74 NW21      29.86S WCI  12
MINOT          CLOUDY    27  21  78 NW16      29.80R WCI  15
MINOT AFB      MIX PCPN  27  26  98 NW18      29.79R WCI  14
$$

NDZ018>021-031>035-040>046-252000-
SOUTHWEST NORTH DAKOTA

CITY           SKY/WX    TMP DP  RH WIND       PRES   REMARKS
BISMARCK       CLOUDY    30  24  78 N16       29.81R WCI  19
DICKINSON      CLOUDY    24  19  81 N15       29.80R WCI  11
GARRISON         N/A     27  22  81 NW14      29.80S WCI  16
HETTINGER ARPT CLOUDY    27  20  75 N14       29.80S WCI  16
$$

NDZ004>008-012>016-024-026-027-054-252000-
NORTHEAST NORTH DAKOTA

CITY           SKY/WX    TMP DP  RH WIND       PRES   REMARKS
GRAND FORKS    CLOUDY    28  23  81 N8        29.77R WCI  20
GRND FRKS AFB  CLOUDY    28  28  99 N6        29.77R
DEVILS LAKE    CLOUDY    27  21  80 NW13      29.75S WCI  16
$$

NDZ022-023-025-028>030-036>039-047>053-252000-
SOUTHEAST NORTH DAKOTA

CITY           SKY/WX    TMP DP  RH WIND       PRES   REMARKS
FARGO          CLOUDY    30  24  78 NW8       29.77R
JAMESTOWN      CLOUDY    27  22  81 NW10      29.77R WCI  17
$$




USA.gov is the U.S. government's official web portal to all federal, state and local government web resources and services.